Flag for Gambia Weather past 2 weeks in Serekunda, Gambia

Now
66 °F

Clear.


Feels Like: 66 °F
Forecast: 67 / 85 °F
Wind: 9 mph from North

Location: Banjul / Yundum

Current Time: Mar 6, 2015 at 3:32:53 AM

Latest Report: Mar 6, 2015 at 3:00 AM


Visibility: 10 mi

Pressure: 29.86 "Hg

Humidity: 88%

Dew point: 63 °F

Location of SerekundaLocation

Historic Weather in Serekunda — Graph

°F

Serekunda temperature yesterday

Maximum temperature yesterday: 93 °F (at 3:00 PM)
Minimum temperature yesterday: 64 °F (at 4:00 AM)
Average temperature yesterday: 75 °F

Past Weeks' High & Low Weather Summary

 TemperatureHumidityPressure
High100 °F (Mar 4, 3:00 PM)83% (Feb 19, 4:00 AM)29.98 "Hg (Feb 19, 4:00 AM)
Low63 °F (Feb 21, 4:00 AM)5% (Feb 27, 12:00 PM)29.71 "Hg (Feb 26, 5:00 PM)
Average77 °F37%29.86 "Hg
* Reported Feb 19 1:00 AM — Mar 6 1:00 AM, Serekunda, Weather by CustomWeather, © 2015

Note: Actual official high and low records may vary slightly from our data, if they occured in-between our weather recording intervals... More about our weather records

Advertising

Serekunda weather history for previous 24 hours

 ConditionsComfort  
Time TempWeatherWind HumidityBarometerVisibility
1:00 AM
Fri, Mar 6
68 °FClear.7 mph83%29.86 "Hg10 mi
12:00 AM68 °FMild.N/A83%29.86 "HgN/A
11:00 PM
Thu, Mar 5
70 °FClear.6 mph78%29.89 "Hg10 mi
10:00 PM70 °FClear.12 mph73%29.83 "Hg10 mi
9:00 PM72 °FClear.12 mph69%29.86 "Hg10 mi
8:00 PM73 °FMild.No wind57%29.83 "HgN/A
7:00 PM77 °FSunny.10 mph47%29.80 "Hg10 mi
6:00 PM86 °FSunny.12 mph29%29.80 "Hg10 mi
5:00 PM90 °FSunny.12 mph21%29.80 "Hg10 mi
4:00 PM91 °FSunny.6 mph16%29.80 "Hg10 mi
3:00 PM93 °FSunny.12 mph16%29.80 "Hg10 mi
2:00 PM91 °FSunny.10 mphN/AN/A10 mi
1:00 PM90 °FSunny.13 mph9%29.86 "Hg10 mi
12:00 PM86 °FSunny.12 mph19%29.89 "Hg10 mi
11:00 AM75 °FSunny.6 mph27%29.89 "Hg10 mi
10:00 AM75 °FSunny.13 mph31%29.92 "Hg6 mi
9:00 AM68 °FSunny.No wind78%29.86 "Hg6 mi
8:00 AM64 °FSunny.No wind83%29.86 "Hg6 mi
7:00 AM64 °FClear.No wind83%29.89 "Hg6 mi
6:00 AM64 °FClear.3 mph78%29.89 "Hg6 mi
5:00 AM66 °FClear.6 mph78%29.86 "Hg6 mi
4:00 AM64 °FClear.No wind83%29.86 "Hg6 mi
3:00 AM66 °FClear.No wind73%29.86 "Hg6 mi
Weather by CustomWeather, © 2015

See weather overviewHow to use our weather pages